Location: Smarden
(51.1333°N, 0.6833°E)
Time: 06:03:53
(UTC+00:00)

Daily predictions for brighter satellites

Satellite Brightness Start Highest point End
(mag) Time Altitude Azimuth Time Altitude Azimuth Time Altitude Azimuth
USA 234 3.6 16:54:19 10° ENE 17:00:40 54° N 17:07:01 10° W
YAOGAN 1 4.2 16:58:31 10° E 17:00:55 15° ENE 17:03:20 10° NNE
ATLAS 5 CENTAUR R/B 2.1 16:57:21 10° SSW 17:01:07 39° ESE 17:05:20 10° NE
CZ-4C R/B 3.0 16:58:31 10° NNE 17:01:36 47° E 17:04:39 10° S
Cosmos 2082 4.2 16:56:08 10° SW 17:01:48 64° NW 17:07:30 10° NNE
FengYun 1-2 T 4.3 16:57:25 10° SE 17:02:50 58° ENE 17:08:21 10° N
Tsikada Rocket 4.0 16:57:37 10° S 17:03:54 76° E 17:10:10 10° NNE
NOAA 12 4.1 16:59:30 10° SSE 17:04:43 77° ENE 17:09:59 10° NNW
SL-14 R/B 3.7 17:02:03 10° SSE 17:05:41 40° E 17:09:23 10° NNE
ATLAS 3B R/B 3.4 16:59:46 10° NW 17:06:36 63° SW 17:13:42 10° SSE
RESURS DK-1 2.4 17:02:37 10° SSW 17:06:43 65° ESE 17:10:50 10° NE
Cosmos 2228 3.3 17:03:13 10° N 17:07:21 45° ENE 17:11:28 10° SSE
Cosmos 1400 Rocket 3.7 17:03:37 10° NNW 17:07:41 56° W 17:11:40 10° S
Cosmos 1538 Rocket 4.4 17:08:35 10° NNW 17:13:30 41° ENE 17:18:23 10° SE
CZ-4C R/B 2.4 17:09:06 10° SW 17:14:14 73° NW 17:20:32 10° NE
Meteor 2-5 Rocket 3.8 17:09:13 10° S 17:14:36 54° E 17:19:59 10° NNE
CZ-3B R/B 1.4 17:13:22 10° WNW 17:15:19 45° NNE 17:19:02 10° E
SJ 16-02 3.3 17:16:14 10° ESE 17:17:36 11° E 17:18:56 10° ENE
CORIOLIS 4.2 17:16:04 10° SSE 17:21:29 87° ENE 17:26:54 10° NNW
Cosmos 2263 Rocket 2.3 17:16:29 10° SSW 17:22:07 68° ESE 17:27:46 10° NE
Cosmos 1455 3.6 17:21:54 10° NNE 17:24:39 19° ENE 17:27:24 10° ESE
Cosmos 968 Rocket 3.9 17:19:45 10° SW 17:24:48 62° WNW 17:29:54 10° NNE
Envisat 4.4 17:20:04 10° S 17:24:53 43° W 17:29:46 10° NNW
Cosmos 2058 Rocket 3.7 17:22:34 10° N 17:26:43 35° ENE 17:30:52 10° SE
Cosmos 1354 Rocket 4.0 17:21:29 10° SSW 17:26:47 72° ESE 17:32:07 10° NNE
NOAA 11 4.2 17:21:26 10° SSE 17:26:57 87° ENE 17:32:30 10° NNW
USA-17 4.2 17:24:39 10° SW 17:28:14 84° SE 17:30:58 13° NE
Cosmos 1300 2.6 17:25:18 10° N 17:29:09 84° E 17:32:58 10° SSE
NOSS 7 (H) 4.1 17:29:54 10° SW 17:33:07 82° NW 17:35:34 14° NE
Landsat 5 3.5 17:30:12 10° NNE 17:34:11 74° WNW 17:38:02 10° SSW
GENESIS II 4.3 17:32:03 10° SSW 17:36:03 68° SE 17:39:28 14° NE
ADEOS Rocket 4.2 17:32:16 10° N 17:37:58 39° WNW 17:43:13 10° SW
ARGOS 4.0 17:34:51 10° ESE 17:39:13 26° ENE 17:43:36 10° N
NOSS 3-1 (C) 4.3 17:33:01 10° NW 17:39:38 45° NNE 17:47:11 11° E
Lacrosse 5 1.8 17:34:35 10° WNW 17:39:40 73° NNE 17:44:43 10° ESE
CREW DRAGON DEMO-1 DEB 2.6 17:36:57 10° W 17:39:51 86° N 17:41:52 18° E
Cosmos 1943 4.1 17:36:03 10° NW 17:41:35 54° WSW 17:47:04 10° S
Okean 1-7 Rocket 4.4 17:37:55 10° SSE 17:41:53 30° E 17:45:52 10° NNE
Cosmos 1726 Rocket 3.5 17:38:01 10° N 17:42:23 73° ENE 17:46:46 10° SSE
ERS-2 3.4 17:42:03 17° ENE 17:43:36 22° E 17:46:28 10° SSE
ISS -1.4 17:42:37 10° SSE 17:43:58 12° SE 17:45:00 11° ESE
CZ-2C R/B 4.4 17:45:49 13° E 17:45:49 13° E 17:47:37 10° ESE
Cosmos 1939 Rocket 2.8 17:41:53 10° SSE 17:46:00 80° ENE 17:50:07 10° NNW
Meteor 1-24 Rocket 3.5 17:43:21 10° S 17:48:41 78° E 17:54:00 10° NNE
COSMOS 2455 3.3 17:43:50 10° S 17:49:28 43° ESE 17:54:02 15° NE
Cosmos 1833 Rocket 4.0 17:48:34 10° NNW 17:52:48 21° NE 17:54:41 18° ENE
Cosmos 2082 Rocket 3.8 17:50:50 10° N 17:54:24 16° NNE 17:55:56 15° NE
Cosmos 1315 Rocket 3.8 17:51:05 10° NNW 17:54:56 49° W 17:58:48 10° S
USA 229 DEB 4.3 17:49:52 10° NW 17:56:35 43° NNE 18:01:49 18° E
USA 229 4.3 17:49:58 10° NW 17:56:40 43° NNE 18:01:52 18° E
IRS-1C Rocket 4.0 17:51:43 10° SSE 17:56:55 66° ENE 18:02:09 10° N
CZ-4 R/B 1.6 17:54:25 10° SE 17:58:20 46° ENE 18:02:12 10° N
Feng Yun 1-1 Rocket 4.2 17:54:11 10° SSE 17:59:37 89° ENE 18:05:14 10° NNW
COSMO-SKYMED 1 2.6 17:56:54 10° NNE 18:01:13 57° E 18:05:29 10° S
NOSS 3-4 (A) 4.3 17:56:01 10° W 18:01:43 42° NNW 18:07:06 14° NE
NOSS 3-4 (C) 4.3 17:56:09 10° W 18:01:52 43° NNW 18:07:15 14° NE
Cosmos 2279 Rocket 4.2 17:55:52 10° NNW 18:02:09 76° W 18:08:22 10° S
Cosmos 2227 Rocket 4.3 18:06:04 10° W 18:10:09 20° NNW 18:14:14 10° NNE
CZ-4B R/B 1.3 18:08:14 12° NNE 18:11:26 86° ESE 18:14:45 10° SSW
CZ-4 R/B 4.4 18:07:38 10° SSE 18:11:47 89° ENE 18:15:58 10° NNW
NOSS 3-1 (A) 4.3 18:05:32 10° NW 18:12:10 45° NNE 18:16:57 23° E
Okean-O 2.6 18:10:06 10° SSE 18:14:28 63° ENE 18:18:53 10° N
Cosmos 923 Rocket 4.0 18:10:00 10° NNW 18:15:19 59° ENE 18:20:34 10° SE
CZ-2C R/B 3.2 18:10:42 10° SSE 18:16:01 87° WSW 18:21:41 10° NNW
Cosmos 1844 Rocket 3.0 18:11:17 10° S 18:16:35 43° ESE 18:19:25 25° NE
Okean O Rocket 3.6 18:13:37 10° SSW 18:17:35 32° W 18:21:34 10° NNW
Cosmos 1689 Rocket 4.1 18:20:00 16° SSE 18:20:00 16° SSE 18:20:46 10° SSE
H-2A R/B 1.9 18:13:33 10° SSE 18:18:27 63° ENE 18:23:32 10° N
Cosmos 1626 4.4 18:15:22 10° SW 18:18:29 25° WNW 18:21:37 10° NNW
ATLAS 2AS CENTAUR R/B 3.7 18:11:43 10° WSW 18:19:24 50° NNW 18:25:31 16° NE
Meteor 1-21 Rocket 4.4 18:14:23 10° SSE 18:19:37 45° E 18:24:52 10° NNE
Aureole 2 Rocket 2.6 18:17:00 10° S 18:19:29 40° SE 18:19:29 40° SE
Cosmos 158 Rocket 3.9 18:15:24 10° NNW 18:20:44 70° ENE 18:26:06 10° SSE
Cosmos 1680 Rocket 3.6 18:17:32 10° NNW 18:22:42 53° ENE 18:26:36 17° SE
SAR-Lupe-4 3.5 18:31:27 57° E 18:31:33 57° ESE 18:35:04 10° S
CZ-2D R/B 4.3 18:28:20 10° S 18:32:05 48° W 18:35:50 10° NNW
Meteor 2-10 Rocket 4.1 18:26:39 10° NNW 18:32:10 63° W 18:37:25 10° S
Cosmos 1818 3.8 18:28:02 10° SSW 18:33:14 49° ESE 18:34:52 37° ENE
H-2A R/B 3.8 18:29:31 10° N 18:33:31 33° WNW 18:37:27 10° SW
Cosmos 2297 Rocket 4.5 18:32:08 10° WNW 18:35:09 14° NNW 18:38:11 10° N
YAOGAN 1 2.5 18:32:05 10° SSE 18:36:25 86° WSW 18:40:47 10° NNW
Cosmos 1892 Rocket 4.1 18:33:41 10° SSW 18:37:58 57° WNW 18:42:15 10° N
CSL-04 Rocket 3.6 18:34:58 10° SSE 18:40:20 68° ENE 18:45:48 10° NNW
Helios 1A Rocket 2.8 18:37:10 10° SSE 18:41:19 88° ENE 18:45:30 10° NNW
SAR-Lupe-1 3.9 18:42:35 73° SE 18:42:35 73° SE 18:46:01 10° S
APEX 4.5 18:35:39 10° SSW 18:42:39 81° ESE 18:46:31 25° NE
USA 234 3.3 18:40:20 34° E 18:43:15 64° NNE 18:49:44 10° WNW
Iridium 4 Rocket 3.6 18:39:40 10° N 18:45:24 61° E 18:50:42 10° SSE
MOS 1 Rocket 3.3 18:41:07 10° N 18:45:28 71° WNW 18:49:43 10° SSW
ATLAS 5 CENTAUR R/B 2.6 18:41:43 10° WSW 18:45:42 40° NNW 18:47:37 27° NNE
Meteor 2-1 Rocket 4.3 18:40:59 10° NNW 18:46:35 74° W 18:52:04 10° S
Cosmos 1092 Rocket 3.9 18:40:36 10° S 18:46:40 61° E 18:52:44 10° NNE
Cosmos 1812 Rocket 3.4 18:44:03 10° N 18:48:28 65° ENE 18:48:54 61° ESE
SKYMED 2 4.4 18:45:01 10° N 18:49:14 51° WNW 18:53:26 10° SW
Cosmos 2344 4.2 18:43:07 10° NW 18:51:54 71° NE 18:59:36 25° ESE
SJ 16-02 1.2 18:51:00 10° SSW 18:55:24 85° ESE 18:55:59 67° NNE
SJ-11-01 4.5 18:50:55 10° S 18:55:36 71° WSW 19:00:18 10° NNW
Aureole 3 3.9 18:52:38 10° NNW 18:56:13 47° W 18:59:15 10° SSW
Cosmos 2112 Rocket 3.9 18:54:56 10° NNW 19:00:14 85° ENE 19:02:18 38° SSE
Cosmos 1455 3.3 18:56:50 10° NNW 19:00:29 44° W 19:04:07 10° SSW
MetOp-A 4.5 19:04:29 46° NNE 19:04:29 46° NNE 19:08:46 10° N
CZ-4C R/B 3.6 18:58:47 10° WNW 19:03:49 31° NNW 19:06:29 23° NNE
Nadezhda 4 Rocket 4.2 18:57:53 10° SSW 19:04:06 69° WNW 19:10:18 10° N
Cosmos 2263 Rocket 3.8 19:01:35 10° WSW 19:06:31 30° NW 19:10:38 14° NNE
X-37B 3.4 19:04:52 10° SSW 19:05:31 13° SSW 19:05:31 13° SSW
COSMOS 2406 3.2 19:09:15 10° NNW 19:14:49 62° NE 19:14:49 62° NE
ERS-2 3.6 19:16:37 32° NW 19:17:13 35° WNW 19:20:33 10° SW
ARGOS 3.6 19:13:50 10° S 19:19:08 61° WSW 19:24:29 10° NNW
ISS -1.2 19:16:53 10° SW 19:17:58 18° SW 19:17:58 18° SW
Lacrosse 5 3.2 19:17:50 10° WNW 19:22:23 35° SW 19:24:15 26° S
CZ-2C R/B 3.0 19:27:19 54° S 19:27:19 54° S 19:31:37 10° S
Cosmos 1626 Rocket 4.5 19:26:29 10° SSW 19:30:43 47° WNW 19:31:13 45° NW
NOSS 3-1 (C) 4.1 19:23:50 10° NW 19:31:10 78° SW 19:34:39 39° SSE
CZ-4 R/B 4.0 19:30:28 10° SW 19:33:35 21° W 19:36:39 10° NW
COSMOS 2455 3.5 19:29:31 10° WSW 19:35:22 50° NW 19:37:13 38° N
Cosmos 1553 Rocket 3.9 19:29:14 10° N 19:35:42 85° E 19:36:14 76° SSE
Cosmos 1833 Rocket 3.1 19:32:02 10° NNW 19:36:25 54° NNW 19:36:25 54° NNW
Cosmos 1844 3.9 19:32:51 10° SW 19:38:30 67° NW 19:39:07 62° NNW
Cosmos 2082 Rocket 3.3 19:34:20 10° NNW 19:37:48 34° N 19:37:48 34° N
Cosmos 2026 Rocket 4.0 19:35:01 10° SSW 19:41:07 74° WNW 19:47:22 10° N
USA 281 3.8 19:43:33 41° NNE 19:43:33 41° NNE 19:48:14 10° NNW
USA 229 DEB 3.9 19:40:56 10° NW 19:48:11 80° SW 19:49:18 66° SSE
USA 229 3.8 19:41:02 10° NW 19:48:17 80° SW 19:49:21 67° SSE
USA 267 3.9 19:51:35 41° S 19:51:35 41° S 19:56:07 10° SW
H-2A R/B 4.3 19:54:34 10° SW 19:58:22 21° W 20:02:15 10° NW
Cosmos 1844 Rocket 3.7 19:55:10 10° WSW 20:00:32 42° NW 20:01:07 41° NNW
NOSS 3-1 (A) 4.0 19:56:24 10° NW 20:03:45 77° SW 20:04:26 72° S
ATLAS 2AS CENTAUR R/B 4.0 20:05:14 10° WNW 20:12:09 32° N 20:12:56 32° N
USA 234 3.8 20:27:40 55° W 20:27:40 55° W 20:32:51 10° WNW
ATLAS 5 CENTAUR R/B 4.4 20:28:06 10° NW 20:29:10 15° NW 20:29:10 15° NW
SJ 16-02 4.3 20:31:47 10° W 20:33:02 14° WNW 20:33:02 14° WNW
CZ-4C R/B 4.3 20:48:44 10° NW 20:51:41 23° NNW 20:51:41 23° NNW
